Year,Month,Day,Hour,Minute,Value (Times are PST for windspeed in km/hr)
2016,07,27,00,00,1.70
2016,07,27,00,01,1.90
2016,07,27,00,02,0.70
2016,07,27,00,03,0.40
2016,07,27,00,04,1.50
2016,07,27,00,05,0.00
2016,07,27,00,06,0.60
2016,07,27,00,07,1.10
2016,07,27,00,08,0.00
2016,07,27,00,09,1.90
2016,07,27,00,10,1.00
2016,07,27,00,11,1.30
2016,07,27,00,12,1.60
2016,07,27,00,13,2.30
2016,07,27,00,14,2.10
2016,07,27,00,15,4.50
2016,07,27,00,16,3.10
2016,07,27,00,17,4.80
2016,07,27,00,18,3.90
2016,07,27,00,19,3.80
2016,07,27,00,20,3.90
2016,07,27,00,21,2.90
2016,07,27,00,22,2.10
2016,07,27,00,23,2.40
2016,07,27,00,24,1.30
2016,07,27,00,25,2.00
2016,07,27,00,26,1.70
2016,07,27,00,27,3.10
2016,07,27,00,28,0.90
2016,07,27,00,29,2.70
2016,07,27,00,30,3.40
2016,07,27,00,31,2.10
2016,07,27,00,32,4.40
2016,07,27,00,33,2.90
2016,07,27,00,34,0.80
2016,07,27,00,35,0.00
2016,07,27,00,36,0.50
2016,07,27,00,37,3.00
2016,07,27,00,38,1.70
2016,07,27,00,39,1.60
2016,07,27,00,40,0.10
2016,07,27,00,41,0.40
2016,07,27,00,42,1.90
2016,07,27,00,43,1.60
2016,07,27,00,44,0.10
2016,07,27,00,45,0.10
2016,07,27,00,46,4.80
2016,07,27,00,47,4.50
2016,07,27,00,48,3.60
2016,07,27,00,49,3.80
2016,07,27,00,50,2.90
2016,07,27,00,51,2.30
2016,07,27,00,52,3.10
2016,07,27,00,53,4.20
2016,07,27,00,54,3.70
2016,07,27,00,55,2.40
2016,07,27,00,56,2.70
2016,07,27,00,57,3.60
2016,07,27,00,58,2.10
2016,07,27,00,59,3.30
2016,07,27,01,00,3.60
2016,07,27,01,01,1.40
2016,07,27,01,02,3.60
2016,07,27,01,03,3.60
2016,07,27,01,04,2.10
2016,07,27,01,05,3.00
2016,07,27,01,06,3.20
2016,07,27,01,07,3.70
2016,07,27,01,08,2.90
2016,07,27,01,09,1.70
2016,07,27,01,10,3.00
2016,07,27,01,11,1.80
2016,07,27,01,12,2.70
2016,07,27,01,13,2.70
2016,07,27,01,14,2.80
2016,07,27,01,15,3.30
2016,07,27,01,16,0.40
2016,07,27,01,17,0.10
2016,07,27,01,18,0.00
2016,07,27,01,19,0.00
2016,07,27,01,20,0.00
2016,07,27,01,21,1.30
2016,07,27,01,22,0.20
2016,07,27,01,23,0.10
2016,07,27,01,24,0.00
2016,07,27,01,25,1.40
2016,07,27,01,26,3.30
2016,07,27,01,27,2.00
2016,07,27,01,28,2.50
2016,07,27,01,29,1.90
2016,07,27,01,30,1.90
2016,07,27,01,31,1.10
2016,07,27,01,32,1.00
2016,07,27,01,33,0.00
2016,07,27,01,34,0.00
2016,07,27,01,35,0.00
2016,07,27,01,36,0.00
2016,07,27,01,37,0.80
2016,07,27,01,38,0.10
2016,07,27,01,39,0.10
2016,07,27,01,40,0.90
2016,07,27,01,41,0.60
2016,07,27,01,42,0.00
2016,07,27,01,43,0.00
2016,07,27,01,44,0.00
2016,07,27,01,45,0.00
2016,07,27,01,46,0.00
2016,07,27,01,47,0.20
2016,07,27,01,48,1.30
2016,07,27,01,49,1.30
2016,07,27,01,50,0.00
2016,07,27,01,51,2.10
2016,07,27,01,52,4.10
2016,07,27,01,53,1.10
2016,07,27,01,54,2.30
2016,07,27,01,55,1.50
2016,07,27,01,56,2.70
2016,07,27,01,57,2.60
2016,07,27,01,58,3.00
2016,07,27,01,59,2.20
2016,07,27,02,00,1.60
2016,07,27,02,01,1.90
2016,07,27,02,02,1.50
2016,07,27,02,03,2.30
2016,07,27,02,04,3.20
2016,07,27,02,05,1.50
2016,07,27,02,06,0.30
2016,07,27,02,07,1.10
2016,07,27,02,08,4.50
2016,07,27,02,09,2.50
2016,07,27,02,10,3.50
2016,07,27,02,11,1.90
2016,07,27,02,12,1.50
2016,07,27,02,13,2.40
2016,07,27,02,14,4.20
2016,07,27,02,15,2.00
2016,07,27,02,16,1.70
2016,07,27,02,17,1.10
2016,07,27,02,18,2.60
2016,07,27,02,19,5.20
2016,07,27,02,20,5.10
2016,07,27,02,21,3.80
2016,07,27,02,22,2.10
2016,07,27,02,23,4.50
2016,07,27,02,24,3.80
2016,07,27,02,25,4.50
2016,07,27,02,26,3.80
2016,07,27,02,27,3.80
2016,07,27,02,28,4.10
2016,07,27,02,29,4.90
2016,07,27,02,30,1.40
2016,07,27,02,31,0.90
2016,07,27,02,32,2.40
2016,07,27,02,33,1.00
2016,07,27,02,34,0.10
2016,07,27,02,35,1.30
2016,07,27,02,36,2.30
2016,07,27,02,37,1.00
2016,07,27,02,38,1.10
2016,07,27,02,39,0.80
2016,07,27,02,40,1.50
2016,07,27,02,41,0.00
2016,07,27,02,42,0.00
2016,07,27,02,43,0.00
2016,07,27,02,44,0.00
2016,07,27,02,45,1.50
2016,07,27,02,46,0.40
2016,07,27,02,47,0.00
2016,07,27,02,48,0.00
2016,07,27,02,49,1.30
2016,07,27,02,50,3.30
2016,07,27,02,51,3.80
2016,07,27,02,52,1.80
2016,07,27,02,53,4.20
2016,07,27,02,54,2.70
2016,07,27,02,55,2.20
2016,07,27,02,56,1.80
2016,07,27,02,57,3.00
2016,07,27,02,58,4.80
2016,07,27,02,59,4.00
2016,07,27,03,00,2.60
2016,07,27,03,01,1.90
2016,07,27,03,02,5.00
2016,07,27,03,03,3.30
2016,07,27,03,04,4.80
2016,07,27,03,05,4.20
2016,07,27,03,06,3.40
2016,07,27,03,07,1.80
2016,07,27,03,08,3.80
2016,07,27,03,09,2.40
2016,07,27,03,10,3.50
2016,07,27,03,11,3.00
2016,07,27,03,12,1.40
2016,07,27,03,13,2.70
2016,07,27,03,14,3.40
2016,07,27,03,15,4.40
2016,07,27,03,16,4.40
2016,07,27,03,17,4.30
2016,07,27,03,18,3.20
2016,07,27,03,19,0.80
2016,07,27,03,20,0.00
2016,07,27,03,21,0.10
2016,07,27,03,22,0.00
2016,07,27,03,23,2.00
2016,07,27,03,24,2.30
2016,07,27,03,25,3.10
2016,07,27,03,26,4.10
2016,07,27,03,27,3.20
2016,07,27,03,28,2.20
2016,07,27,03,29,3.20
2016,07,27,03,30,0.40
2016,07,27,03,31,2.10
2016,07,27,03,32,3.60
2016,07,27,03,33,1.40
2016,07,27,03,34,1.70
2016,07,27,03,35,1.60
2016,07,27,03,36,1.70
2016,07,27,03,37,1.90
2016,07,27,03,38,2.90
2016,07,27,03,39,2.20
2016,07,27,03,40,3.70
2016,07,27,03,41,4.20
2016,07,27,03,42,4.00
2016,07,27,03,43,3.90
2016,07,27,03,44,5.10
2016,07,27,03,45,3.90
2016,07,27,03,46,2.80
2016,07,27,03,47,3.90
2016,07,27,03,48,2.90
2016,07,27,03,49,3.50
2016,07,27,03,50,2.70
2016,07,27,03,51,2.70
2016,07,27,03,52,2.40
2016,07,27,03,53,1.80
2016,07,27,03,54,3.20
2016,07,27,03,55,2.50
2016,07,27,03,56,2.10
2016,07,27,03,57,3.80
2016,07,27,03,58,3.80
2016,07,27,03,59,3.40
2016,07,27,04,00,4.80
2016,07,27,04,01,2.70
2016,07,27,04,02,3.10
2016,07,27,04,03,2.00
2016,07,27,04,04,0.60
2016,07,27,04,05,1.10
2016,07,27,04,06,3.30
2016,07,27,04,07,0.20
2016,07,27,04,08,2.10
2016,07,27,04,09,3.00
2016,07,27,04,10,0.70
2016,07,27,04,11,0.00
2016,07,27,04,12,0.20
2016,07,27,04,13,0.00
2016,07,27,04,14,0.00
2016,07,27,04,15,0.00
2016,07,27,04,16,1.10
2016,07,27,04,17,0.00
2016,07,27,04,18,1.50
2016,07,27,04,19,1.90
2016,07,27,04,20,3.00
2016,07,27,04,21,2.30
2016,07,27,04,22,3.20
2016,07,27,04,23,2.30
2016,07,27,04,24,2.30
2016,07,27,04,25,2.60
2016,07,27,04,26,2.10
2016,07,27,04,27,2.00
2016,07,27,04,28,3.50
2016,07,27,04,29,3.90
2016,07,27,04,30,2.60
2016,07,27,04,31,2.70
2016,07,27,04,32,4.90
2016,07,27,04,33,3.30
2016,07,27,04,34,2.60
2016,07,27,04,35,3.50
2016,07,27,04,36,3.20
2016,07,27,04,37,2.30
2016,07,27,04,38,4.20
2016,07,27,04,39,1.80
2016,07,27,04,40,3.80
2016,07,27,04,41,3.20
2016,07,27,04,42,2.20
2016,07,27,04,43,1.20
2016,07,27,04,44,1.70
2016,07,27,04,45,4.00
2016,07,27,04,46,4.90
2016,07,27,04,47,5.00
2016,07,27,04,48,4.60
2016,07,27,04,49,3.70
2016,07,27,04,50,4.30
2016,07,27,04,51,2.40
2016,07,27,04,52,4.60
2016,07,27,04,53,4.60
2016,07,27,04,54,6.10
2016,07,27,04,55,2.40
2016,07,27,04,56,2.30
2016,07,27,04,57,3.60
2016,07,27,04,58,4.20
2016,07,27,04,59,3.20
2016,07,27,05,00,3.40
2016,07,27,05,01,2.50
2016,07,27,05,02,3.70
2016,07,27,05,03,1.90
2016,07,27,05,04,3.50
2016,07,27,05,05,3.30
2016,07,27,05,06,3.00
2016,07,27,05,07,4.00
2016,07,27,05,08,3.00
2016,07,27,05,09,2.80
2016,07,27,05,10,2.70
2016,07,27,05,11,1.90
2016,07,27,05,12,3.90
2016,07,27,05,13,3.60
2016,07,27,05,14,3.20
2016,07,27,05,15,2.10
2016,07,27,05,16,2.70
2016,07,27,05,17,2.70
2016,07,27,05,18,4.20
2016,07,27,05,19,3.00
2016,07,27,05,20,2.90
2016,07,27,05,21,4.10
2016,07,27,05,22,4.00
2016,07,27,05,23,4.70
2016,07,27,05,24,2.90
2016,07,27,05,25,4.90
2016,07,27,05,26,3.20
2016,07,27,05,27,2.80
2016,07,27,05,28,5.20
2016,07,27,05,29,5.10
2016,07,27,05,30,6.30
2016,07,27,05,31,5.20
2016,07,27,05,32,4.00
2016,07,27,05,33,3.40
2016,07,27,05,34,4.90
2016,07,27,05,35,1.80
2016,07,27,05,36,1.00
2016,07,27,05,37,3.20
2016,07,27,05,38,3.30
2016,07,27,05,39,0.60
2016,07,27,05,40,0.70
2016,07,27,05,41,5.20
2016,07,27,05,42,4.80
2016,07,27,05,43,3.30
2016,07,27,05,44,3.70
2016,07,27,05,45,2.00
2016,07,27,05,46,2.00
2016,07,27,05,47,4.40
2016,07,27,05,48,1.10
2016,07,27,05,49,2.70
2016,07,27,05,50,1.50
2016,07,27,05,51,0.70
2016,07,27,05,52,2.50
2016,07,27,05,53,1.80
2016,07,27,05,54,1.70
2016,07,27,05,55,3.50
2016,07,27,05,56,3.30
2016,07,27,05,57,5.80
2016,07,27,05,58,4.90
2016,07,27,05,59,4.10
2016,07,27,06,00,4.50
2016,07,27,06,01,2.00
2016,07,27,06,02,2.40
2016,07,27,06,03,2.50
2016,07,27,06,04,5.20
2016,07,27,06,05,2.40
2016,07,27,06,06,3.90
2016,07,27,06,07,5.80
2016,07,27,06,08,5.30
2016,07,27,06,09,4.00
2016,07,27,06,10,2.90
2016,07,27,06,11,3.90
2016,07,27,06,12,5.40
2016,07,27,06,13,3.50
2016,07,27,06,14,4.50
2016,07,27,06,15,3.50
2016,07,27,06,16,2.80
2016,07,27,06,17,4.50
2016,07,27,06,18,4.30
2016,07,27,06,19,4.10
2016,07,27,06,20,3.50
2016,07,27,06,21,4.50
2016,07,27,06,22,2.90
2016,07,27,06,23,5.10
2016,07,27,06,24,4.80
2016,07,27,06,25,5.90
2016,07,27,06,26,3.90
2016,07,27,06,27,5.10
2016,07,27,06,28,6.30
2016,07,27,06,29,5.40
2016,07,27,06,30,5.50
2016,07,27,06,31,4.60
2016,07,27,06,32,5.20
2016,07,27,06,33,4.50
2016,07,27,06,34,2.30
2016,07,27,06,35,3.40
2016,07,27,06,36,4.20
2016,07,27,06,37,4.10
2016,07,27,06,38,5.70
2016,07,27,06,39,4.20
2016,07,27,06,40,2.60
2016,07,27,06,41,5.40
2016,07,27,06,42,2.70
2016,07,27,06,43,3.10
2016,07,27,06,44,2.30
2016,07,27,06,45,2.50
2016,07,27,06,46,5.00
2016,07,27,06,47,4.80
2016,07,27,06,48,5.30
2016,07,27,06,49,3.20
2016,07,27,06,50,3.20
2016,07,27,06,51,3.20
2016,07,27,06,52,3.20
2016,07,27,06,53,3.20
2016,07,27,06,54,3.40
2016,07,27,06,55,3.50
2016,07,27,06,56,6.00
2016,07,27,06,57,5.50
2016,07,27,06,58,3.80
2016,07,27,06,59,2.40
2016,07,27,07,00,8.30
2016,07,27,07,01,2.90
2016,07,27,07,02,3.30
2016,07,27,07,03,3.30
2016,07,27,07,04,6.40
2016,07,27,07,05,3.80
2016,07,27,07,06,5.70
2016,07,27,07,07,3.60
2016,07,27,07,08,3.40
2016,07,27,07,09,2.70
2016,07,27,07,10,4.60
2016,07,27,07,11,5.80
2016,07,27,07,12,6.70
2016,07,27,07,13,1.90
2016,07,27,07,14,5.70
2016,07,27,07,15,5.50
2016,07,27,07,16,3.80
2016,07,27,07,17,5.00
2016,07,27,07,18,5.10
2016,07,27,07,19,2.30
2016,07,27,07,20,2.60
2016,07,27,07,21,2.70
2016,07,27,07,22,4.10
2016,07,27,07,23,3.80
2016,07,27,07,24,6.00
2016,07,27,07,25,5.10
2016,07,27,07,26,3.50
2016,07,27,07,27,5.00
2016,07,27,07,28,3.50
2016,07,27,07,29,4.60
2016,07,27,07,30,6.00
2016,07,27,07,31,4.60
2016,07,27,07,32,3.60
2016,07,27,07,33,2.20
2016,07,27,07,34,4.10
2016,07,27,07,35,6.30
2016,07,27,07,36,4.60
2016,07,27,07,37,2.50
2016,07,27,07,38,2.70
2016,07,27,07,39,4.00
2016,07,27,07,40,3.00
2016,07,27,07,41,6.90
2016,07,27,07,42,4.70
2016,07,27,07,43,7.30
2016,07,27,07,44,3.10
2016,07,27,07,45,4.60
2016,07,27,07,46,3.30
2016,07,27,07,47,5.50
2016,07,27,07,48,5.90
2016,07,27,07,49,5.50
2016,07,27,07,50,6.30
2016,07,27,07,51,5.20
2016,07,27,07,52,3.10
2016,07,27,07,53,3.80
2016,07,27,07,54,2.60
2016,07,27,07,55,3.50
2016,07,27,07,56,1.40
2016,07,27,07,57,3.20
2016,07,27,07,58,4.90
2016,07,27,07,59,5.10
2016,07,27,08,00,3.90
2016,07,27,08,01,0.80
2016,07,27,08,02,2.10
2016,07,27,08,03,0.70
2016,07,27,08,04,0.20
2016,07,27,08,05,3.50
2016,07,27,08,06,5.20
2016,07,27,08,07,5.40
2016,07,27,08,08,2.40
2016,07,27,08,09,0.80
2016,07,27,08,10,4.10
2016,07,27,08,11,3.30
2016,07,27,08,12,0.20
2016,07,27,08,13,3.00
2016,07,27,08,14,3.50
2016,07,27,08,15,4.00
2016,07,27,08,16,3.90
2016,07,27,08,17,2.20
2016,07,27,08,18,3.80
2016,07,27,08,19,8.40
2016,07,27,08,20,4.70
2016,07,27,08,21,5.70
2016,07,27,08,22,4.00
2016,07,27,08,23,6.10
2016,07,27,08,24,7.90
2016,07,27,08,25,4.30
2016,07,27,08,26,4.00
2016,07,27,08,27,4.50
2016,07,27,08,28,5.10
2016,07,27,08,29,5.00
2016,07,27,08,30,2.40
2016,07,27,08,31,4.50
2016,07,27,08,32,2.00
2016,07,27,08,33,6.00
2016,07,27,08,34,11.20
2016,07,27,08,35,9.40
2016,07,27,08,36,10.00
2016,07,27,08,37,10.00
2016,07,27,08,38,10.60
2016,07,27,08,39,7.30
2016,07,27,08,40,4.10
2016,07,27,08,41,4.30
2016,07,27,08,42,10.70
2016,07,27,08,43,13.00
2016,07,27,08,44,12.20
2016,07,27,08,45,6.00
2016,07,27,08,46,9.80
2016,07,27,08,47,10.10
2016,07,27,08,48,6.80
2016,07,27,08,49,9.50
2016,07,27,08,50,14.20
2016,07,27,08,51,10.70
2016,07,27,08,52,14.70
2016,07,27,08,53,16.50
2016,07,27,08,54,10.90
2016,07,27,08,55,10.00
2016,07,27,08,56,13.80
2016,07,27,08,57,8.20
2016,07,27,08,58,10.50
2016,07,27,08,59,9.20
2016,07,27,09,00,13.80
2016,07,27,09,01,14.90
2016,07,27,09,02,17.20
2016,07,27,09,03,15.70
2016,07,27,09,04,17.50
2016,07,27,09,05,13.10
2016,07,27,09,06,14.10
2016,07,27,09,07,10.70
2016,07,27,09,08,12.20
2016,07,27,09,09,14.10
2016,07,27,09,10,13.70
2016,07,27,09,11,14.70
2016,07,27,09,12,12.70
2016,07,27,09,13,13.60
2016,07,27,09,14,10.00
2016,07,27,09,15,11.70
2016,07,27,09,16,13.20
2016,07,27,09,17,15.00
2016,07,27,09,18,15.10
2016,07,27,09,19,12.50
2016,07,27,09,20,12.10
2016,07,27,09,21,12.30
2016,07,27,09,22,9.80
2016,07,27,09,23,14.50
2016,07,27,09,24,14.20
2016,07,27,09,25,17.20
2016,07,27,09,26,15.70
2016,07,27,09,27,15.00
2016,07,27,09,28,9.50
2016,07,27,09,29,14.50
2016,07,27,09,30,13.30
2016,07,27,09,31,11.20
2016,07,27,09,32,18.20
2016,07,27,09,33,16.40
2016,07,27,09,34,20.10
2016,07,27,09,35,20.60
2016,07,27,09,36,12.60
2016,07,27,09,37,16.50
2016,07,27,09,38,14.90
2016,07,27,09,39,10.50
2016,07,27,09,40,20.40
2016,07,27,09,41,16.40
2016,07,27,09,42,12.00
2016,07,27,09,43,16.70
2016,07,27,09,44,14.00
2016,07,27,09,45,11.30
2016,07,27,09,46,15.50
2016,07,27,09,47,10.80
2016,07,27,09,48,7.30
2016,07,27,09,49,9.10
2016,07,27,09,50,9.80
2016,07,27,09,51,9.20
2016,07,27,09,52,8.10
2016,07,27,09,53,12.90
2016,07,27,09,54,10.30
2016,07,27,09,55,9.80
2016,07,27,09,56,7.70
2016,07,27,09,57,11.70
2016,07,27,09,58,12.10
2016,07,27,09,59,11.00
2016,07,27,10,00,12.70
2016,07,27,10,01,13.60
2016,07,27,10,02,8.50
2016,07,27,10,03,11.40
2016,07,27,10,04,10.60
2016,07,27,10,05,11.40
2016,07,27,10,06,14.70
2016,07,27,10,07,13.50
2016,07,27,10,08,10.60
2016,07,27,10,09,12.00
2016,07,27,10,10,12.60
2016,07,27,10,11,11.80
2016,07,27,10,12,15.30
2016,07,27,10,13,12.50
2016,07,27,10,14,9.50
2016,07,27,10,15,11.60
2016,07,27,10,16,13.90
2016,07,27,10,17,16.90
2016,07,27,10,18,11.60
2016,07,27,10,19,7.50
2016,07,27,10,20,12.30
2016,07,27,10,21,10.20
2016,07,27,10,22,11.40
2016,07,27,10,23,14.60
2016,07,27,10,24,13.00
2016,07,27,10,25,9.40
2016,07,27,10,26,11.10
2016,07,27,10,27,13.10
2016,07,27,10,28,8.90
2016,07,27,10,29,14.80
2016,07,27,10,30,14.00
2016,07,27,10,31,16.80
2016,07,27,10,32,18.40
2016,07,27,10,33,11.70
2016,07,27,10,34,10.90
2016,07,27,10,35,11.10
2016,07,27,10,36,10.00
2016,07,27,10,37,13.40
2016,07,27,10,38,11.90
2016,07,27,10,39,12.80
2016,07,27,10,40,11.90
2016,07,27,10,41,7.60
2016,07,27,10,42,10.50
2016,07,27,10,43,9.10
2016,07,27,10,44,8.70
2016,07,27,10,45,7.20
2016,07,27,10,46,10.80
2016,07,27,10,47,16.00
2016,07,27,10,48,13.50
2016,07,27,10,49,10.50
2016,07,27,10,50,11.60
2016,07,27,10,51,12.70
2016,07,27,10,52,14.50
2016,07,27,10,53,11.50
2016,07,27,10,54,16.40
2016,07,27,10,55,12.30
2016,07,27,10,56,13.50
2016,07,27,10,57,9.50
2016,07,27,10,58,9.20
2016,07,27,10,59,8.40
2016,07,27,11,00,11.80
2016,07,27,11,01,7.40
2016,07,27,11,02,11.20
2016,07,27,11,03,8.60
2016,07,27,11,04,10.30
2016,07,27,11,05,10.00
2016,07,27,11,06,13.20
2016,07,27,11,07,11.30
2016,07,27,11,08,12.20
2016,07,27,11,09,8.40
2016,07,27,11,10,8.20
2016,07,27,11,11,13.00
2016,07,27,11,12,12.50
2016,07,27,11,13,10.40
2016,07,27,11,14,13.40
2016,07,27,11,15,14.70
2016,07,27,11,16,16.70
2016,07,27,11,17,12.80
2016,07,27,11,18,17.00
2016,07,27,11,19,13.90
2016,07,27,11,20,13.90
2016,07,27,11,21,10.40
2016,07,27,11,22,13.20
2016,07,27,11,23,12.30
2016,07,27,11,24,10.80
2016,07,27,11,25,13.40
2016,07,27,11,26,13.60
2016,07,27,11,27,12.50
2016,07,27,11,28,9.50
2016,07,27,11,29,10.30
2016,07,27,11,30,9.60
2016,07,27,11,31,15.40
2016,07,27,11,32,14.20
2016,07,27,11,33,16.30
2016,07,27,11,34,11.50
2016,07,27,11,35,9.30
2016,07,27,11,36,14.20
2016,07,27,11,37,15.60
2016,07,27,11,38,11.60
2016,07,27,11,39,12.30
2016,07,27,11,40,11.40
2016,07,27,11,41,11.90
2016,07,27,11,42,12.50
2016,07,27,11,43,12.80
2016,07,27,11,44,13.80
2016,07,27,11,45,13.20
2016,07,27,11,46,12.50
2016,07,27,11,47,10.30
2016,07,27,11,48,11.40
2016,07,27,11,49,13.50
2016,07,27,11,50,12.80
2016,07,27,11,51,12.10
2016,07,27,11,52,11.50
2016,07,27,11,53,8.90
2016,07,27,11,54,9.50
2016,07,27,11,55,10.00
2016,07,27,11,56,13.40
2016,07,27,11,57,8.70
2016,07,27,11,58,8.10
2016,07,27,11,59,11.40
2016,07,27,12,00,13.90
2016,07,27,12,01,12.50
2016,07,27,12,02,12.30
2016,07,27,12,03,10.20
2016,07,27,12,04,14.20
2016,07,27,12,05,10.10
2016,07,27,12,06,7.00
2016,07,27,12,07,8.10
2016,07,27,12,08,9.40
2016,07,27,12,09,7.20
2016,07,27,12,10,12.00
2016,07,27,12,11,10.50
2016,07,27,12,12,9.80
2016,07,27,12,13,11.50
2016,07,27,12,14,8.60
2016,07,27,12,15,6.70
2016,07,27,12,16,9.10
2016,07,27,12,17,9.60
2016,07,27,12,18,12.60
2016,07,27,12,19,11.20
2016,07,27,12,20,11.80
2016,07,27,12,21,12.10
2016,07,27,12,22,12.60
2016,07,27,12,23,12.60
2016,07,27,12,24,10.80
2016,07,27,12,25,14.20
2016,07,27,12,26,10.70
2016,07,27,12,27,10.40
2016,07,27,12,28,9.50
2016,07,27,12,29,9.00
2016,07,27,12,30,16.40
2016,07,27,12,31,8.90
2016,07,27,12,32,12.90
2016,07,27,12,33,9.70
2016,07,27,12,34,12.60
2016,07,27,12,35,12.00
2016,07,27,12,36,7.20
2016,07,27,12,37,8.90
2016,07,27,12,38,12.20
2016,07,27,12,39,9.10
2016,07,27,12,40,7.00
2016,07,27,12,41,8.70
2016,07,27,12,42,11.70
2016,07,27,12,43,10.70
2016,07,27,12,44,11.20
2016,07,27,12,45,9.70
2016,07,27,12,46,8.10
2016,07,27,12,47,9.20
2016,07,27,12,48,9.80
2016,07,27,12,49,11.40
2016,07,27,12,50,6.40
2016,07,27,12,51,5.20
2016,07,27,12,52,6.90
2016,07,27,12,53,6.90
2016,07,27,12,54,8.60
2016,07,27,12,55,7.60
2016,07,27,12,56,10.90
2016,07,27,12,57,8.40
2016,07,27,12,58,10.80
2016,07,27,12,59,7.20
2016,07,27,13,00,5.30
2016,07,27,13,01,8.60
2016,07,27,13,02,5.30
2016,07,27,13,03,7.80
2016,07,27,13,04,8.50
2016,07,27,13,05,11.40
2016,07,27,13,06,9.90
2016,07,27,13,07,7.90
2016,07,27,13,08,1.10
2016,07,27,13,09,6.50
2016,07,27,13,10,6.90
2016,07,27,13,11,6.90
2016,07,27,13,12,11.00
2016,07,27,13,13,8.60
2016,07,27,13,14,9.00
2016,07,27,13,15,11.00
2016,07,27,13,16,10.90
2016,07,27,13,17,13.50
2016,07,27,13,18,11.00
2016,07,27,13,19,9.80
2016,07,27,13,20,11.90
2016,07,27,13,21,9.80
2016,07,27,13,22,6.20
2016,07,27,13,23,11.30
2016,07,27,13,24,5.30
2016,07,27,13,25,5.00
2016,07,27,13,26,2.50
2016,07,27,13,27,7.80
2016,07,27,13,28,5.90
2016,07,27,13,29,10.80
2016,07,27,13,30,8.30
2016,07,27,13,31,6.50
2016,07,27,13,32,6.20
2016,07,27,13,33,6.40
2016,07,27,13,34,4.70
2016,07,27,13,35,3.60
2016,07,27,13,36,5.30
2016,07,27,13,37,5.40
2016,07,27,13,38,5.10
2016,07,27,13,39,5.10
2016,07,27,13,40,3.90
2016,07,27,13,41,6.00
2016,07,27,13,42,5.50
2016,07,27,13,43,5.20
2016,07,27,13,44,4.10
2016,07,27,13,45,2.70
2016,07,27,13,46,5.00
2016,07,27,13,47,5.20
2016,07,27,13,48,2.40
2016,07,27,13,49,3.00
2016,07,27,13,50,5.40
2016,07,27,13,51,3.30
2016,07,27,13,52,4.10
2016,07,27,13,53,3.70
2016,07,27,13,54,5.60
2016,07,27,13,55,5.80
2016,07,27,13,56,3.90
2016,07,27,13,57,1.10
2016,07,27,13,58,4.60
2016,07,27,13,59,7.50
2016,07,27,14,00,7.30
2016,07,27,14,01,11.30
2016,07,27,14,02,8.60
2016,07,27,14,03,6.00
2016,07,27,14,04,5.90
2016,07,27,14,05,5.40
2016,07,27,14,06,1.90
2016,07,27,14,07,6.40
2016,07,27,14,08,5.40
2016,07,27,14,09,5.80
2016,07,27,14,10,8.90
2016,07,27,14,11,7.70
2016,07,27,14,12,8.20
2016,07,27,14,13,7.00
2016,07,27,14,14,4.10
2016,07,27,14,15,4.40
2016,07,27,14,16,5.50
2016,07,27,14,17,2.60
2016,07,27,14,18,4.20
2016,07,27,14,19,5.40
2016,07,27,14,20,3.90
2016,07,27,14,21,2.10
2016,07,27,14,22,7.50
2016,07,27,14,23,7.70
2016,07,27,14,24,8.50
2016,07,27,14,25,6.20
2016,07,27,14,26,4.80
2016,07,27,14,27,3.90
2016,07,27,14,28,3.50
2016,07,27,14,29,4.60
2016,07,27,14,30,5.50
2016,07,27,14,31,5.20
2016,07,27,14,32,7.50
2016,07,27,14,33,3.50
2016,07,27,14,34,7.60
2016,07,27,14,35,8.00
2016,07,27,14,36,3.20
2016,07,27,14,37,2.70
2016,07,27,14,38,6.90
2016,07,27,14,39,4.40
2016,07,27,14,40,4.20
2016,07,27,14,41,5.90
2016,07,27,14,42,5.40
2016,07,27,14,43,7.30
2016,07,27,14,44,8.30
2016,07,27,14,45,3.20
2016,07,27,14,46,4.80
2016,07,27,14,47,4.60
2016,07,27,14,48,2.40
2016,07,27,14,49,7.20
2016,07,27,14,50,6.30
2016,07,27,14,51,2.30
2016,07,27,14,52,6.20
2016,07,27,14,53,3.20
2016,07,27,14,54,4.90
2016,07,27,14,55,2.90
2016,07,27,14,56,3.90
2016,07,27,14,57,9.50
2016,07,27,14,58,9.10
2016,07,27,14,59,12.90
2016,07,27,15,00,7.90
2016,07,27,15,01,7.90
2016,07,27,15,02,5.70
2016,07,27,15,03,8.10
2016,07,27,15,04,6.70
2016,07,27,15,05,4.50
2016,07,27,15,06,8.50
2016,07,27,15,07,7.80
2016,07,27,15,08,7.00
2016,07,27,15,09,7.00
2016,07,27,15,10,7.00
2016,07,27,15,11,9.00
2016,07,27,15,12,7.40
2016,07,27,15,13,7.00
2016,07,27,15,14,9.80
2016,07,27,15,15,14.20
2016,07,27,15,16,12.60
2016,07,27,15,17,15.60
2016,07,27,15,18,12.60
2016,07,27,15,19,10.70
2016,07,27,15,20,14.30
2016,07,27,15,21,17.50
2016,07,27,15,22,18.50
2016,07,27,15,23,18.40
2016,07,27,15,24,15.00
2016,07,27,15,25,16.30
2016,07,27,15,26,13.80
2016,07,27,15,27,14.00
2016,07,27,15,28,8.80
2016,07,27,15,29,12.00
2016,07,27,15,30,11.70
2016,07,27,15,31,11.00
2016,07,27,15,32,11.40
2016,07,27,15,33,15.10
2016,07,27,15,34,17.50
2016,07,27,15,35,16.10
2016,07,27,15,36,17.10
2016,07,27,15,37,12.50
2016,07,27,15,38,15.50
2016,07,27,15,39,13.20
2016,07,27,15,40,13.30
2016,07,27,15,41,12.00
2016,07,27,15,42,9.80
2016,07,27,15,43,8.10
2016,07,27,15,44,13.10
2016,07,27,15,45,13.40
2016,07,27,15,46,10.00
2016,07,27,15,47,16.20
2016,07,27,15,48,11.00
2016,07,27,15,49,17.30
2016,07,27,15,50,12.90
2016,07,27,15,51,10.20
2016,07,27,15,52,14.20
2016,07,27,15,53,15.00
2016,07,27,15,54,15.30
2016,07,27,15,55,14.00
2016,07,27,15,56,15.40
2016,07,27,15,57,9.20
2016,07,27,15,58,12.40
2016,07,27,15,59,12.90
2016,07,27,16,00,12.70
2016,07,27,16,01,16.30
2016,07,27,16,02,14.10
2016,07,27,16,03,13.30
2016,07,27,16,04,15.50
2016,07,27,16,05,16.00
2016,07,27,16,06,15.00
2016,07,27,16,07,13.40
2016,07,27,16,08,15.60
2016,07,27,16,09,8.50
2016,07,27,16,10,12.10
2016,07,27,16,11,11.50
2016,07,27,16,12,13.90
2016,07,27,16,13,11.50
2016,07,27,16,14,15.20
2016,07,27,16,15,13.80
2016,07,27,16,16,16.60
2016,07,27,16,17,13.90
2016,07,27,16,18,13.50
2016,07,27,16,19,13.60
2016,07,27,16,20,15.40
2016,07,27,16,21,13.50
2016,07,27,16,22,10.40
2016,07,27,16,23,12.00
2016,07,27,16,24,13.00
2016,07,27,16,25,11.80
2016,07,27,16,26,13.10
2016,07,27,16,27,15.90
2016,07,27,16,28,12.80
2016,07,27,16,29,9.80
2016,07,27,16,30,11.70
2016,07,27,16,31,16.20
2016,07,27,16,32,12.80
2016,07,27,16,33,11.20
2016,07,27,16,34,15.70
2016,07,27,16,35,7.60
2016,07,27,16,36,12.00
2016,07,27,16,37,16.40
2016,07,27,16,38,14.40
2016,07,27,16,39,16.80
2016,07,27,16,40,17.60
2016,07,27,16,41,11.30
2016,07,27,16,42,16.50
2016,07,27,16,43,11.70
2016,07,27,16,44,14.80
2016,07,27,16,45,12.30
2016,07,27,16,46,17.20
2016,07,27,16,47,15.40
2016,07,27,16,48,11.80
2016,07,27,16,49,16.30
2016,07,27,16,50,15.60
2016,07,27,16,51,16.30
2016,07,27,16,52,12.40
2016,07,27,16,53,12.70
2016,07,27,16,54,13.80
2016,07,27,16,55,14.10
2016,07,27,16,56,9.80
2016,07,27,16,57,17.00
2016,07,27,16,58,15.00
2016,07,27,16,59,10.80
2016,07,27,17,00,16.10
2016,07,27,17,01,12.20
2016,07,27,17,02,11.10
2016,07,27,17,03,13.50
2016,07,27,17,04,9.70
2016,07,27,17,05,14.10
2016,07,27,17,06,14.20
2016,07,27,17,07,14.50
2016,07,27,17,08,16.00
2016,07,27,17,09,13.50
2016,07,27,17,10,11.80
2016,07,27,17,11,17.10
2016,07,27,17,12,14.80
2016,07,27,17,13,14.60
2016,07,27,17,14,9.20
2016,07,27,17,15,12.10
2016,07,27,17,16,7.80
2016,07,27,17,17,11.30
2016,07,27,17,18,12.60
2016,07,27,17,19,13.90
2016,07,27,17,20,14.10
2016,07,27,17,21,11.10
2016,07,27,17,22,11.00
2016,07,27,17,23,15.80
2016,07,27,17,24,9.10
2016,07,27,17,25,13.30
2016,07,27,17,26,14.30
2016,07,27,17,27,11.50
2016,07,27,17,28,11.00
2016,07,27,17,29,15.10
2016,07,27,17,30,10.50
2016,07,27,17,31,10.30
2016,07,27,17,32,10.50
2016,07,27,17,33,10.40
2016,07,27,17,34,11.20
2016,07,27,17,35,6.70
2016,07,27,17,36,10.60
2016,07,27,17,37,10.10
2016,07,27,17,38,11.60
2016,07,27,17,39,15.00
2016,07,27,17,40,17.00
2016,07,27,17,41,12.30
2016,07,27,17,42,12.80
2016,07,27,17,43,12.90
2016,07,27,17,44,15.20
2016,07,27,17,45,15.70
2016,07,27,17,46,15.10
2016,07,27,17,47,11.10
2016,07,27,17,48,13.90
2016,07,27,17,49,11.70
2016,07,27,17,50,12.60